• In Belarus
  • List of Countries
  • For 7 days
  • Water Temperature
  • Satellite Maps
  • Weather Map
  • Weather Widgets
  • user-avatar
    Login

    Hourly Weather Buyan

    Today, 19 January, Saturday

    Time Temperature Precipitation Wind Pressure Humidity
    00:00 -3°C° 0 mm 6 mps 736 mmHg 91%
    01:00 -3°C° 0 mm 6 mps 736 mmHg 91%
    02:00 -3°C° 0 mm 4 mps 737 mmHg 90%
    03:00 -4°C° 0 mm 4 mps 737 mmHg 90%
    04:00 -5°C° 0 mm 4 mps 738 mmHg 91%
    05:00 -8°C° 0 mm 4 mps 738 mmHg 92%
    06:00 -9°C° 0 mm 4 mps 739 mmHg 92%
    07:00 -11°C° 0 mm 4 mps 739 mmHg 93%
    08:00 -13°C° 0 mm 3 mps 740 mmHg 93%
    09:00 -12°C° 0 mm 3 mps 740 mmHg 93%
    10:00 -12°C° 0 mm 3 mps 740 mmHg 93%
    11:00 -11°C° 0 mm 4 mps 741 mmHg 92%
    12:00 -11°C° 0 mm 4 mps 741 mmHg 92%
    13:00 -11°C° 0 mm 4 mps 741 mmHg 92%
    14:00 -10°C° 0 mm 4 mps 742 mmHg 93%
    15:00 -11°C° 0 mm 5 mps 742 mmHg 92%
    16:00 -11°C° 0 mm 5 mps 742 mmHg 92%
    17:00 -10°C° 0 mm 5 mps 742 mmHg 92%
    18:00 -10°C° 0 mm 5 mps 743 mmHg 92%
    19:00 -10°C° 0 mm 5 mps 743 mmHg 92%
    20:00 -9°C° 0 mm 4 mps 743 mmHg 91%
    21:00 -9°C° 0 mm 4 mps 744 mmHg 92%
    22:00 -9°C° 0 mm 4 mps 744 mmHg 92%
    23:00 -9°C° 0 mm 4 mps 744 mmHg 92%

    Tomorrow, 20 January, Sunday

    Time Temperature Precipitation Wind Pressure Humidity
    00:00 -10°C° 0 mm 4 mps 745 mmHg 93%
    01:00 -11°C° 0 mm 4 mps 745 mmHg 93%
    02:00 -11°C° 0 mm 4 mps 745 mmHg 94%
    03:00 -12°C° 0 mm 4 mps 745 mmHg 94%
    04:00 -14°C° 0 mm 4 mps 745 mmHg 94%
    05:00 -14°C° 0 mm 4 mps 745 mmHg 94%
    06:00 -15°C° 0 mm 4 mps 745 mmHg 94%
    07:00 -15°C° 0 mm 4 mps 745 mmHg 94%
    08:00 -15°C° 0 mm 4 mps 745 mmHg 94%
    09:00 -14°C° 0 mm 5 mps 745 mmHg 94%
    10:00 -13°C° 0 mm 5 mps 745 mmHg 94%
    11:00 -11°C° 0 mm 6 mps 745 mmHg 94%
    12:00 -11°C° 0 mm 6 mps 745 mmHg 93%
    13:00 -11°C° 0 mm 6 mps 744 mmHg 93%
    14:00 -12°C° 0 mm 7 mps 744 mmHg 92%
    15:00 -12°C° 0 mm 7 mps 744 mmHg 92%
    16:00 -12°C° 0 mm 7 mps 743 mmHg 92%
    17:00 -12°C° 0 mm 7 mps 743 mmHg 92%
    18:00 -12°C° 0 mm 6 mps 743 mmHg 92%
    19:00 -14°C° 0 mm 6 mps 743 mmHg 92%
    20:00 -15°C° 0 mm 6 mps 742 mmHg 93%
    21:00 -16°C° 0 mm 6 mps 742 mmHg 92%
    22:00 -17°C° 0 mm 5 mps 742 mmHg 91%
    23:00 -18°C° 0 mm 5 mps 742 mmHg 90%

    Day after tomorrow, 21 January, Monday

    Time Temperature Precipitation Wind Pressure Humidity
    00:00 -18°C° 0 mm 5 mps 742 mmHg 91%
    01:00 -18°C° 0 mm 5 mps 742 mmHg 93%
    02:00 -18°C° 0 mm 5 mps 741 mmHg 94%
    03:00 -16°C° 0.2 mm 4 mps 741 mmHg 94%
    04:00 -15°C° 0.2 mm 4 mps 741 mmHg 95%
    05:00 -14°C° 0.2 mm 4 mps 741 mmHg 95%
    06:00 -14°C° 0.1 mm 4 mps 741 mmHg 95%
    07:00 -14°C° 0.1 mm 3 mps 741 mmHg 95%
    08:00 -14°C° 0.1 mm 3 mps 741 mmHg 96%
    09:00 -13°C° 0 mm 3 mps 742 mmHg 94%
    10:00 -11°C° 0 mm 4 mps 742 mmHg 93%
    11:00 -10°C° 0 mm 4 mps 742 mmHg 92%
    12:00 -10°C° 0 mm 4 mps 742 mmHg 91%
    13:00 -10°C° 0 mm 4 mps 742 mmHg 90%
    14:00 -10°C° 0 mm 4 mps 742 mmHg 89%
    15:00 -12°C° 0 mm 4 mps 743 mmHg 91%
    16:00 -14°C° 0 mm 3 mps 743 mmHg 94%
    17:00 -16°C° 0 mm 3 mps 743 mmHg 96%
    18:00 -17°C° 0 mm 3 mps 743 mmHg 96%
    19:00 -16°C° 0 mm 2 mps 744 mmHg 97%
    20:00 -17°C° 0 mm 2 mps 744 mmHg 97%
    21:00 -16°C° 0 mm 2 mps 744 mmHg 97%
    22:00 -16°C° 0 mm 2 mps 744 mmHg 98%
    23:00 -16°C° 0 mm 2 mps 745 mmHg 98%

    22 January, Tuesday

    Time Temperature Precipitation Wind Pressure Humidity
    00:00 -15°C° 0 mm 2 mps 745 mmHg 97%
    01:00 -14°C° 0 mm 2 mps 745 mmHg 97%
    02:00 -14°C° 0 mm 2 mps 745 mmHg 97%
    03:00 -14°C° 0 mm 2 mps 745 mmHg 97%
    04:00 -14°C° 0 mm 2 mps 745 mmHg 97%
    05:00 -14°C° 0 mm 2 mps 745 mmHg 97%
    06:00 -14°C° 0 mm 2 mps 745 mmHg 97%
    07:00 -15°C° 0 mm 3 mps 745 mmHg 97%
    08:00 -15°C° 0 mm 3 mps 745 mmHg 96%
    09:00 -15°C° 0 mm 3 mps 745 mmHg 96%
    10:00 -15°C° 0 mm 4 mps 745 mmHg 95%
    11:00 -15°C° 0 mm 4 mps 745 mmHg 95%
    12:00 -15°C° 0 mm 4 mps 744 mmHg 94%
    13:00 -15°C° 0 mm 4 mps 744 mmHg 94%
    14:00 -15°C° 0 mm 4 mps 744 mmHg 94%
    15:00 -15°C° 0 mm 4 mps 743 mmHg 95%
    16:00 -16°C° 0 mm 4 mps 743 mmHg 95%
    17:00 -17°C° 0 mm 4 mps 743 mmHg 96%
    18:00 -17°C° 0 mm 4 mps 743 mmHg 94%
    19:00 -17°C° 0 mm 4 mps 742 mmHg 92%
    20:00 -18°C° 0 mm 4 mps 742 mmHg 91%
    21:00 -18°C° 0 mm 4 mps 742 mmHg 90%
    22:00 -17°C° 0 mm 4 mps 742 mmHg 89%
    23:00 -18°C° 0 mm 5 mps 742 mmHg 88%

    23 January, Wednesday

    Time Temperature Precipitation Wind Pressure Humidity
    00:00 -17°C° 0 mm 4 mps 741 mmHg 89%
    01:00 -17°C° 0 mm 4 mps 741 mmHg 90%
    02:00 -17°C° 0 mm 4 mps 741 mmHg 91%
    03:00 -17°C° 0.1 mm 4 mps 740 mmHg 92%
    04:00 -17°C° 0.1 mm 4 mps 740 mmHg 94%
    05:00 -16°C° 0.1 mm 3 mps 740 mmHg 95%
    06:00 -15°C° 0.1 mm 3 mps 739 mmHg 95%
    07:00 -15°C° 0.1 mm 3 mps 739 mmHg 95%
    08:00 -15°C° 0.1 mm 3 mps 739 mmHg 96%
    09:00 -14°C° 0.1 mm 2 mps 740 mmHg 95%
    10:00 -13°C° 0.1 mm 2 mps 740 mmHg 95%
    11:00 -13°C° 0.1 mm 2 mps 740 mmHg 95%
    12:00 -13°C° 0 mm 2 mps 740 mmHg 94%
    13:00 -10°C° 0 mm 1 mps 739 mmHg 94%
    14:00 -10°C° 0 mm 1 mps 739 mmHg 94%
    15:00 -12°C° 0 mm 1 mps 739 mmHg 95%
    16:00 -13°C° 0 mm 1 mps 739 mmHg 96%
    17:00 -14°C° 0 mm 1 mps 739 mmHg 98%
    18:00 -14°C° 0 mm 1 mps 740 mmHg 97%
    19:00 -14°C° 0 mm 1 mps 740 mmHg 97%
    20:00 -13°C° 0 mm 1 mps 740 mmHg 96%
    21:00 -13°C° 0 mm 1 mps 740 mmHg 96%
    22:00 -14°C° 0 mm 1 mps 741 mmHg 97%
    23:00 -14°C° 0 mm 1 mps 741 mmHg 97%

    24 January, Thursday

    Time Temperature Precipitation Wind Pressure Humidity
    00:00 -14°C° 0 mm 1 mps 741 mmHg 97%
    01:00 -13°C° 0 mm 1 mps 741 mmHg 97%
    02:00 -13°C° 0 mm 1 mps 741 mmHg 97%
    03:00 -13°C° 0 mm 1 mps 741 mmHg 97%
    04:00 -13°C° 0 mm 1 mps 741 mmHg 97%
    05:00 -13°C° 0 mm 1 mps 741 mmHg 97%
    06:00 -14°C° 0 mm 1 mps 741 mmHg 97%
    07:00 -15°C° 0 mm 1 mps 742 mmHg 98%
    08:00 -15°C° 0 mm 1 mps 742 mmHg 98%
    09:00 -15°C° 0 mm 1 mps 742 mmHg 98%
    10:00 -14°C° 0 mm 1 mps 742 mmHg 97%
    11:00 -13°C° 0 mm 1 mps 743 mmHg 96%
    12:00 -13°C° 0 mm 1 mps 742 mmHg 96%
    13:00 -13°C° 0 mm 1 mps 742 mmHg 96%
    14:00 -13°C° 0 mm 1 mps 742 mmHg 96%
    15:00 -14°C° 0 mm 1 mps 742 mmHg 96%
    16:00 -15°C° 0 mm 1 mps 742 mmHg 97%
    17:00 -16°C° 0 mm 1 mps 742 mmHg 98%
    18:00 -19°C° 0 mm 2 mps 742 mmHg 98%
    19:00 -19°C° 0 mm 2 mps 742 mmHg 98%
    20:00 -19°C° 0 mm 2 mps 742 mmHg 98%
    21:00 -20°C° 0 mm 2 mps 742 mmHg 98%
    22:00 -20°C° 0 mm 2 mps 742 mmHg 99%
    23:00 -21°C° 0 mm 2 mps 742 mmHg 99%
    Show more